Theta_e
293 293 294 294 294 295 295 295 295 295 296 297 296 297 297 297 297 295 290 293 289 283 284 285 286 283 284 284 280 284 282 282 282 277 276 277 276 280 279 281 280 280 278 278 280 277 276 294 294 289 294 298 299 300
292 293 293 294 294 293 294 294 295 295 296 297 296 297 297 297 297 296 287 292 294 285 285 289 289 291 289 289 286 286 283 283 284 281 281 281 278 280 279 276 285 278 282 281 281 283 287 290 291 295 300 298 299 297
292 292 293 294 296 297 293 294 295 295 295 296 297 296 296 296 296 296 291 290 289 284 285 285 284 289 292 291 294 284 287 288 287 290 286 284 278 282 277 279 281 284 286 281 282 284 285 289 292 294 294 296 297 298
292 293 294 295 295 295 293 293 293 293 294 295 296 296 296 296 296 295 290 291 288 286 279 283 288 286 292 292 291 291 289 290 290 290 285 282 279 285 281 282 281 284 285 283 283 284 287 289 291 292 292 294 294 295
293 293 293 295 294 291 291 293 292 292 294 295 295 295 295 295 296 294 294 292 293 286 279 281 284 287 290 291 290 290 289 287 288 284 283 280 285 284 285 284 281 285 284 283 282 286 286 286 290 292 291 291 293 293
293 293 294 295 294 293 293 293 292 293 294 295 295 295 295 295 295 288 283 289 292 291 282 277 284 282 287 289 288 288 288 288 288 285 284 287 284 284 280 279 284 286 287 288 286 288 288 288 289 291 290 291 292 293
292 293 294 295 294 293 292 292 292 293 294 294 295 295 295 295 293 285 284 289 293 291 282 278 278 281 285 287 287 288 287 286 288 285 283 283 284 284 281 277 283 286 287 288 289 289 286 287 288 289 288 289 286 286
291 293 294 295 294 293 292 292 293 294 294 294 294 293 293 294 292 287 292 293 293 286 284 277 276 278 285 281 280 286 284 283 284 284 284 282 284 283 277 282 284 286 286 287 288 290 289 287 286 285 283 285 285 286
290 291 293 295 293 293 293 293 293 294 293 293 294 292 289 286 285 287 294 293 290 286 279 278 275 274 284 282 284 283 285 278 284 280 281 283 280 277 281 283 284 285 285 286 288 287 287 285 286 285 285 282 283 284
289 291 292 294 293 293 293 293 293 294 293 291 288 285 281 285 294 291 285 283 284 283 281 279 280 277 281 281 279 281 282 278 275 280 284 278 278 282 284 285 283 284 285 284 280 282 282 284 285 283 284 284 285 283
288 290 292 293 293 293 293 293 294 292 289 285 283 281 284 290 285 282 279 278 278 276 278 279 279 277 283 278 278 282 278 278 272 277 277 276 276 280 278 278 275 274 275 276 277 278 280 283 284 282 283 283 283 281
287 289 291 291 292 293 293 293 291 287 285 286 285 286 285 282 278 275 272 273 275 274 274 276 277 280 279 283 279 277 276 277 272 280 276 273 278 265 264 266 267 268 269 270 272 274 276 279 283 284 284 283 281 280
286 288 291 290 290 293 293 292 292 290 287 286 283 279 279 275 272 271 268 270 270 272 274 275 275 279 278 279 278 275 273 273 276 274 273 275 262 261 259 260 262 264 266 268 269 273 275 279 283 284 282 281 277 277
285 287 291 290 289 290 289 287 285 284 284 278 276 270 272 271 272 270 269 270 267 269 272 274 275 276 277 275 276 272 272 271 270 270 272 263 257 256 257 260 261 262 265 268 271 273 276 279 281 281 278 277 277 276
284 285 288 288 288 287 285 283 280 275 276 272 273 270 268 263 263 263 263 265 265 265 268 272 272 274 272 271 270 269 266 267 270 269 261 258 256 256 257 258 259 261 265 269 271 273 274 275 275 275 277 278 278 277
283 283 282 286 288 284 283 277 274 272 265 267 263 265 263 265 264 263 262 264 263 263 266 268 272 270 270 269 266 268 268 268 260 256 256 257 256 256 256 257 259 261 265 269 271 272 274 274 274 275 275 275 276 276
281 277 282 284 285 279 278 272 271 263 264 263 259 258 259 260 260 259 258 259 261 262 270 269 271 268 264 265 263 255 257 254 254 255 256 256 255 255 256 258 260 262 266 268 270 271 271 272 273 272 271 272 273 272
274 276 279 283 282 274 268 267 265 264 259 258 261 258 257 256 258 258 257 258 260 261 264 264 263 264 261 263 259 253 254 254 255 256 256 257 256 256 258 259 260 261 263 267 268 269 270 269 267 266 266 266 266 265
277 277 281 281 277 270 268 264 264 259 258 259 259 258 257 256 256 255 255 257 258 258 259 260 256 255 252 251 250 252 252 252 252 253 256 258 257 257 258 260 260 260 261 262 264 266 267 267 267 268 269 269 267 266
276 276 277 277 273 269 264 261 264 261 259 259 260 258 257 256 256 255 253 253 254 254 248 249 247 247 248 249 250 249 250 252 252 253 258 258 257 257 257 258 259 260 259 260 262 263 263 262 266 267 267 267 266 265
267 269 272 270 265 260 257 257 259 259 259 257 258 258 256 256 253 252 251 252 249 246 246 248 248 249 250 250 250 250 250 251 251 253 253 254 256 256 256 257 256 257 257 258 257 257 258 258 260 262 262 262 262 261
262 268 265 267 264 260 257 257 258 259 259 257 257 256 254 253 252 249 251 248 246 246 247 247 248 248 249 249 249 250 250 251 254 254 254 254 252 253 253 255 255 253 253 254 254 255 255 257 258 259 259 259 260 260
260 260 258 258 261 260 255 259 257 256 257 255 257 254 251 251 250 253 246 246 247 249 249 248 249 249 249 249 250 250 250 251 252 252 254 253 252 252 252 252 253 254 253 252 254 255 255 257 258 258 259 259 259 258
256 247 248 249 252 252 255 253 256 255 255 254 254 251 249 249 252 248 244 245 247 249 249 248 249 250 250 250 249 249 248 251 253 252 253 253 251 251 251 251 251 252 253 253 253 254 255 256 257 257 258 258 257 256
253 243 246 244 248 250 250 251 251 253 250 250 251 249 248 250 248 245 245 245 247 247 248 249 249 249 249 249 250 250 250 249 251 251 250 253 253 253 253 252 251 250 253 254 253 254 254 255 255 256 256 256 255 254
242 241 242 242 244 245 245 247 246 246 249 248 246 247 249 250 247 242 244 246 247 247 247 247 247 249 249 248 248 248 248 249 250 251 250 250 251 254 254 253 253 251 252 253 254 253 253 254 254 253 252 253 254 254
242 241 243 245 244 246 245 246 247 246 244 244 244 246 249 246 243 243 247 248 248 248 249 249 248 248 248 248 249 249 249 249 248 249 250 250 250 251 252 252 250 250 251 252 253 253 253 252 252 252 251 251 251 253
241 241 242 242 243 245 243 243 243 242 243 244 245 242 242 242 242 246 248 249 249 249 249 249 249 249 248 248 248 248 249 249 250 250 251 251 251 251 251 251 253 254 252 252 252 252 252 252 251 251 251 250 249 249
243 243 242 242 243 244 242 242 242 244 245 244 244 242 243 246 247 248 249 249 250 250 249 248 248 249 248 249 249 249 249 250 250 251 250 250 250 250 250 251 251 251 251 252 256 253 253 252 251 250 249 250 249 249
243 243 244 244 242 242 244 244 245 246 246 246 247 247 247 247 248 250 250 250 249 248 248 249 249 249 248 249 248 248 249 249 249 251 251 250 249 250 250 250 250 249 250 251 251 251 255 251 252 249 249 249 249 249
244 245 246 246 245 246 246 246 247 248 249 248 248 246 245 247 249 250 250 250 250 250 249 249 249 249 249 249 249 249 248 249 249 249 250 250 250 250 250 250 249 249 249 249 250 250 250 250 249 249 249 249 248 248
245 243 246 245 245 246 247 246 246 247 247 247 246 247 247 247 246 249 250 250 250 248 248 248 248 248 248 249 249 250 250 249 249 249 249 249 250 250 250 249 248 248 248 248 248 248 247 248 248 248 247 247 247 246
245 246 246 246 245 245 245 245 246 246 246 246 246 246 246 247 245 248 251 250 249 248 247 247 248 248 248 248 249 249 248 248 248 250 253 253 253 253 251 250 249 248 247 247 247 246 244 243 244 244 244 244 244 244
Wind_Speed
38 38 38 37 35 34 30 30 32 37 38 36 35 34 32 29 29 14 4 12 6 5 8 6 11 12 3 10 5 10 10 6 7 9 7 6 5 6 11 9 13 13 12 16 10 11 13 2 3 20 16 23 18 25
40 40 41 40 41 41 38 34 34 35 35 35 36 34 32 30 28 24 3 9 8 5 4 4 12 12 13 13 5 10 7 12 8 8 5 4 5 4 5 8 7 13 7 3 8 4 13 15 13 17 13 27 16 6
41 42 43 44 44 36 32 28 27 29 14 25 36 34 31 28 27 21 6 6 5 4 5 5 10 12 7 6 4 4 4 7 6 4 3 2 5 6 7 9 9 3 5 4 3 4 3 16 17 17 17 16 15 4
40 41 42 45 36 11 16 17 12 7 12 23 28 28 26 25 26 20 6 7 6 3 6 4 2 5 3 5 6 3 2 3 1 2 2 3 4 6 7 2 7 1 8 6 5 2 2 13 12 10 16 17 12 11
40 41 43 37 22 3 5 12 5 5 12 18 22 23 22 22 23 12 6 7 8 4 3 1 1 4 2 6 7 4 3 3 1 2 3 5 3 3 5 6 6 7 7 7 5 7 1 6 10 12 18 18 15 10
40 41 45 30 18 8 7 8 5 6 12 16 18 18 19 21 23 5 5 6 12 5 2 4 2 1 3 7 11 10 8 5 3 3 4 3 2 3 4 7 8 11 8 11 7 9 11 6 3 11 17 15 13 7
39 40 43 35 11 6 7 8 7 7 11 15 14 14 14 19 9 5 3 4 20 6 4 3 4 0 1 2 1 1 2 1 3 2 4 3 3 5 5 9 8 12 13 12 11 7 4 8 8 9 10 9 1 3
40 40 41 35 8 6 8 9 8 8 14 14 13 12 10 15 13 8 2 14 16 4 2 2 4 4 7 5 5 3 4 3 3 4 1 6 2 4 6 14 16 10 7 7 13 16 7 4 4 1 2 1 5 8
40 42 39 32 8 10 8 8 8 11 8 11 19 15 7 1 2 3 15 18 3 1 4 3 6 4 5 3 3 4 3 6 2 7 6 6 5 7 8 17 11 15 10 10 11 13 9 6 4 3 3 3 5 7
40 41 37 17 11 11 10 9 12 20 12 15 5 3 3 1 26 12 3 3 3 3 2 3 1 4 7 6 6 6 5 5 6 8 4 6 9 11 7 9 5 3 5 5 5 8 9 10 7 4 7 7 7 9
37 38 30 23 6 10 9 12 22 19 2 2 3 3 2 8 2 1 3 3 3 4 4 2 3 6 3 6 5 5 4 5 5 6 7 7 8 17 3 3 3 5 7 7 7 6 4 3 8 9 7 7 6 9
36 37 23 27 15 7 13 16 9 4 1 2 5 4 2 2 2 2 3 2 4 3 3 3 3 2 3 1 3 3 4 5 7 6 6 6 9 6 6 4 5 7 7 8 10 10 5 2 3 7 10 11 10 11
33 34 25 20 24 14 14 13 14 12 0 1 3 3 2 2 2 3 5 2 2 2 2 3 4 3 2 2 2 3 5 6 2 6 5 2 4 7 8 9 9 8 7 9 13 8 6 8 8 9 10 11 15 15
31 32 28 18 21 20 17 13 13 5 3 3 2 2 0 3 0 2 2 3 3 3 2 1 3 2 1 5 2 5 1 1 5 7 8 4 6 9 10 10 10 11 11 9 10 8 4 2 6 9 10 13 16 16
29 30 16 20 15 14 13 15 14 7 4 3 2 1 1 3 3 2 1 0 3 4 3 1 1 2 2 3 3 2 4 7 6 3 4 5 9 9 10 10 11 10 10 9 6 4 2 6 7 9 10 12 15 16
29 19 9 23 19 14 7 9 6 3 5 4 6 3 2 1 3 2 2 3 5 5 3 2 2 3 4 1 3 5 4 3 2 5 7 8 8 9 10 9 10 11 11 7 2 2 5 6 9 11 11 12 15 17
21 2 23 24 20 8 13 4 3 7 5 4 4 3 3 3 4 3 3 4 5 4 1 2 4 2 2 3 3 2 3 4 7 7 7 9 10 10 9 10 8 10 5 1 4 6 8 9 11 13 14 12 16 18
4 12 23 21 14 3 4 6 5 5 6 3 1 3 3 3 2 2 3 4 4 3 3 2 2 1 1 3 2 3 3 6 6 7 8 9 10 9 8 7 6 5 6 4 6 8 9 10 11 10 12 14 16 19
15 15 13 15 8 2 3 4 4 5 4 3 4 3 3 4 4 3 3 4 2 3 2 2 6 3 3 2 2 4 5 5 6 8 9 8 8 9 8 5 5 6 7 8 9 6 8 10 8 8 9 11 11 13
16 12 16 9 8 2 4 4 2 5 3 3 3 3 4 3 2 3 7 6 4 4 8 7 3 2 3 3 4 5 6 7 7 8 5 6 8 9 9 7 5 4 6 9 9 9 9 10 6 8 8 10 13 14
9 8 11 5 4 7 6 3 5 3 4 4 3 1 3 3 3 3 5 6 6 6 4 3 2 2 4 4 4 5 6 6 6 5 6 7 8 7 7 7 7 6 7 7 8 9 10 8 6 8 10 12 11 10
4 12 3 6 4 4 6 4 3 2 3 3 3 3 4 3 4 4 3 7 5 3 2 2 2 4 4 4 6 6 7 8 5 4 6 7 6 7 8 8 7 8 8 9 8 8 8 8 8 9 11 12 11 11
8 6 5 7 5 6 3 3 3 5 3 2 2 4 4 3 3 1 6 4 3 3 2 2 4 3 3 4 5 6 6 8 5 6 6 6 6 7 6 8 8 8 9 9 7 7 7 9 10 10 10 12 12 11
11 10 9 7 9 4 1 4 3 3 3 3 3 4 4 3 3 5 4 2 2 3 3 4 3 2 1 2 4 6 7 6 4 5 7 5 6 7 7 7 8 7 6 4 6 7 8 9 11 10 10 12 11 11
7 12 7 8 6 4 6 4 5 3 4 4 3 3 3 2 3 3 3 2 3 4 4 4 3 4 3 2 3 4 7 6 5 5 7 6 3 4 6 7 9 9 9 8 9 9 9 8 8 9 10 11 13 12
12 7 7 8 5 6 5 4 5 4 3 4 4 2 1 1 3 4 2 3 3 3 4 4 4 3 3 3 3 4 5 6 5 4 5 6 6 5 5 6 6 7 8 7 7 9 10 10 10 12 11 13 12 11
8 7 4 2 2 2 4 3 3 4 5 4 3 4 1 4 4 2 1 2 2 2 3 3 3 2 3 3 2 3 3 5 5 3 3 5 6 7 7 6 7 4 5 6 7 8 10 9 9 8 8 7 6 6
4 6 6 6 4 5 4 4 5 5 3 3 2 5 4 4 2 2 2 2 2 2 1 2 2 2 2 3 2 3 3 2 2 3 4 7 6 6 7 6 7 9 6 6 6 7 8 7 7 7 7 6 5 4
5 4 2 5 4 6 6 4 4 2 2 2 2 3 3 2 2 2 2 2 2 2 2 2 3 2 2 2 3 3 2 2 3 2 6 4 3 5 5 5 5 5 5 5 7 6 7 5 5 5 5 4 4 3
4 4 2 3 5 6 4 2 3 3 0 1 2 4 3 2 2 1 2 3 4 4 3 3 2 1 2 3 4 5 5 5 5 4 3 4 3 2 3 4 5 4 4 5 5 5 8 7 5 3 4 4 3 2
3 3 3 4 4 2 2 2 2 1 3 5 4 4 3 3 1 2 4 3 2 3 4 4 4 3 3 4 4 4 4 5 6 7 5 3 2 2 2 3 2 2 3 3 3 3 2 3 3 3 3 3 2 1
4 5 2 4 2 1 2 2 2 2 2 2 3 1 2 2 3 2 3 4 4 4 5 4 3 3 3 2 2 3 5 3 4 3 3 2 1 1 1 2 2 2 2 1 2 2 1 2 1 2 2 4 4 5
2 3 4 2 2 2 3 2 2 2 3 2 3 2 2 3 4 2 1 3 3 3 4 3 2 1 2 2 3 3 3 3 5 5 4 4 2 2 2 2 2 2 2 1 1 1 1 1 1 2 3 4 4 4
Wind_Direction
321 317 315 311 307 303 295 289 287 285 268 255 239 226 220 215 206 189 147 187 181 241 249 245 261 248 237 227 156 132 147 179 175 198 211 201 264 218 195 208 192 197 202 211 211 233 234 242 189 196 209 228 229 223
324 319 318 314 303 293 286 285 289 289 271 237 214 210 204 208 202 194 144 183 203 235 296 261 258 238 271 220 166 167 190 159 160 185 197 196 190 208 203 200 196 212 216 223 213 232 328 310 304 303 217 225 232 250
325 323 317 309 304 302 249 274 298 296 267 194 184 194 193 198 196 192 155 150 176 229 248 250 235 240 238 256 274 168 180 180 162 198 159 184 227 171 210 218 187 182 135 215 146 192 254 313 312 304 316 318 325 249
325 324 324 323 324 309 231 272 290 295 143 156 172 181 188 190 192 186 168 162 177 216 232 219 60 230 279 235 236 331 194 134 179 179 190 206 221 206 208 180 207 62 156 179 247 286 236 249 279 340 329 311 300 297
328 327 326 318 340 329 251 263 239 200 164 166 168 179 187 187 190 160 166 176 196 223 227 205 271 218 214 218 211 198 177 199 179 175 195 217 212 228 233 207 196 192 169 181 216 151 66 303 286 306 305 292 285 284
330 330 328 338 321 312 256 226 166 179 181 178 180 184 190 185 173 126 166 195 194 173 198 210 52 294 136 206 219 219 215 219 207 195 218 205 167 228 229 225 230 201 197 208 214 189 201 219 244 274 276 278 264 238
332 332 331 334 303 286 208 217 177 185 199 188 174 172 180 185 170 189 206 154 173 137 172 203 168 92 145 117 111 190 283 217 230 211 225 238 223 186 249 244 220 206 203 204 212 136 180 183 214 222 253 279 193 112
335 335 334 333 295 195 196 206 201 178 155 156 175 193 200 193 172 196 292 165 148 126 233 181 115 164 185 176 182 167 178 178 216 228 229 225 188 210 242 245 241 241 211 197 212 210 211 123 131 108 79 188 219 147
338 340 337 334 176 167 179 151 149 140 151 162 123 115 143 37 92 96 142 137 60 136 180 200 167 162 164 165 135 180 183 199 172 217 219 182 221 216 217 234 236 232 204 209 213 218 220 234 183 186 129 255 158 166
340 343 342 349 145 151 145 124 116 107 69 86 57 93 114 205 112 112 93 131 149 149 163 222 65 145 189 162 184 162 182 218 206 214 134 218 238 239 223 236 301 300 244 142 169 221 215 227 203 169 205 234 204 176
342 344 350 3 155 141 140 131 115 115 60 31 92 63 46 73 92 224 136 168 142 184 180 145 226 146 203 185 170 204 183 183 227 189 203 203 222 227 182 172 26 343 330 313 309 299 345 97 158 165 163 197 188 132
343 341 358 0 343 156 129 112 80 55 45 103 97 80 65 34 118 104 70 125 207 178 156 187 150 79 142 162 196 188 214 188 235 138 201 218 214 52 10 346 330 318 313 301 284 277 283 218 189 161 179 176 169 138
342 341 341 20 6 105 92 74 76 89 71 76 68 82 283 350 134 186 181 192 197 136 156 165 160 143 139 201 183 188 243 217 98 201 220 238 28 6 352 333 320 323 298 289 273 277 270 250 191 179 166 156 138 141
342 339 339 28 15 17 41 37 25 20 50 56 68 118 323 154 330 38 25 49 47 317 356 253 124 185 111 180 168 234 143 190 241 215 214 71 21 333 333 325 321 325 320 302 285 289 277 190 142 133 140 150 144 147
339 333 352 4 20 7 11 20 34 34 44 67 336 180 116 89 57 27 357 212 29 314 293 217 185 229 156 181 218 108 224 226 230 270 25 17 345 331 324 322 315 312 294 277 268 259 164 118 128 123 143 148 144 131
337 329 5 351 355 3 11 24 27 75 57 62 44 131 76 216 130 127 16 68 20 332 294 250 227 186 193 251 180 221 270 244 23 328 325 326 334 325 318 313 296 283 274 272 241 120 112 133 130 120 120 130 127 128
339 1 337 338 349 13 27 61 54 47 74 74 72 37 12 49 43 40 356 9 336 289 281 296 233 78 94 201 201 23 345 336 318 312 316 319 318 313 303 293 298 306 281 299 117 102 99 112 118 116 121 121 116 110
299 314 316 320 348 44 34 29 76 68 65 61 102 85 73 31 30 52 7 340 319 348 328 56 307 127 40 285 98 32 341 327 301 311 314 320 319 319 312 311 320 345 7 44 121 120 120 110 106 111 118 115 107 102
315 308 317 344 355 50 74 54 13 95 75 85 99 82 70 87 76 32 343 325 352 17 349 28 57 42 53 22 352 359 351 342 317 310 296 326 336 336 335 1 34 42 54 57 61 78 87 91 106 123 131 125 117 110
317 314 346 18 9 94 87 56 339 91 106 109 101 96 81 69 50 37 25 9 26 38 43 41 51 27 340 353 333 312 311 319 312 318 327 360 2 353 11 9 21 36 61 58 63 73 88 77 69 98 109 113 112 111
343 336 348 27 62 59 73 11 68 57 119 91 110 111 107 125 72 34 14 351 59 34 70 45 33 348 333 300 312 317 306 329 325 324 319 312 351 3 5 19 21 36 58 66 77 70 63 69 70 83 91 87 85 86
327 344 19 6 83 78 77 20 55 74 67 94 89 58 37 35 30 24 333 48 56 41 22 350 350 339 345 357 333 337 325 310 331 350 355 1 14 5 7 16 36 46 46 43 49 61 56 51 60 74 86 90 86 86
6 19 43 8 86 47 44 315 63 19 88 77 122 80 51 45 18 332 71 61 84 27 344 316 319 310 316 331 329 359 358 355 21 13 9 31 30 22 26 30 21 49 59 42 36 60 69 67 72 82 83 84 87 89
30 45 32 35 14 67 340 42 33 70 63 53 50 77 48 27 2 51 66 53 26 5 7 352 330 307 275 13 22 7 355 338 24 35 11 29 47 33 27 36 34 38 43 51 44 48 51 52 56 63 70 79 77 81
67 7 11 18 17 24 43 39 18 52 71 33 81 79 49 345 65 53 51 44 14 15 359 346 22 27 20 8 8 13 17 5 14 42 16 4 52 62 50 49 45 26 10 43 46 51 55 55 55 62 66 73 84 82
67 1 29 6 19 32 7 61 32 34 29 73 54 359 271 142 74 56 26 355 354 350 356 358 356 357 55 20 357 6 355 347 324 54 30 10 7 26 49 50 54 44 19 27 46 56 58 56 60 65 65 64 73 78
59 11 8 72 345 329 76 67 55 45 54 40 9 354 356 72 74 59 9 19 325 0 337 340 335 346 8 8 13 9 7 11 26 51 37 31 28 30 31 56 60 37 9 36 58 70 83 83 83 86 92 86 80 89
74 20 41 353 43 21 63 47 39 30 19 355 280 38 68 32 78 32 6 359 331 316 346 21 10 20 25 13 2 346 19 28 74 106 117 75 53 44 44 47 45 61 50 45 54 62 70 78 81 78 79 80 80 56
45 359 307 38 51 51 42 34 22 9 345 314 46 86 96 62 22 2 10 341 325 27 53 44 48 76 76 62 52 43 28 353 298 98 87 87 84 47 25 38 43 43 36 30 46 94 86 89 82 86 80 76 75 63
14 348 42 60 52 40 25 356 4 358 299 37 104 112 87 69 32 340 23 36 39 41 33 34 22 58 87 82 75 59 34 24 17 14 90 92 87 82 31 34 39 36 32 38 39 33 40 42 63 41 50 65 64 81
315 298 69 52 81 64 359 327 258 160 71 66 63 84 96 127 133 60 41 18 30 40 43 42 59 35 67 67 63 76 69 33 32 39 48 67 79 72 64 66 68 63 55 56 65 63 72 76 70 68 66 61 63 35
8 24 48 95 121 34 2 5 9 66 42 57 56 77 139 127 74 56 14 356 27 32 26 23 31 55 31 57 68 66 67 50 19 1 13 32 54 66 94 109 118 114 116 113 92 96 94 74 61 38 15 358 354 346
16 24 47 89 110 92 21 342 47 90 53 56 49 30 41 40 74 36 77 39 33 17 357 348 354 25 49 65 74 86 67 17 353 4 16 57 58 74 96 106 126 141 150 133 130 127 168 171 269 249 269 265 264 265